SP3WRO-13 Weather Reports


time (UTC)temp
C
wind
direction
speed
KPH
gust
KPH
rain 1hr
cm
rain 24hr
cm
rain mn
cm
humidity
%
barometer
mb
20260508013026 7 17 0.0 4.8 0.00 0.00 0.00 94 1015.2
20260508011526 7 318 0.0 3.2 0.00 0.00 0.00 94 1015.2
20260508010026 7 342 0.0 0.0 0.00 0.00 0.00 94 1015.2
20260508004526 7 337 0.0 0.0 0.00 0.00 0.00 94 1015.2
20260508003026 7 306 0.0 4.8 0.00 0.00 0.00 94 1015.2
20260508001526 7 18 0.0 3.2 0.00 0.00 0.00 93 1015.3
20260508000022 7 12 0.0 4.8 0.00 0.00 0.00 93 1015.3
20260507234522 7 24 0.0 4.8 0.00 0.00 0.00 93 1015.3
20260507233022 7 294 0.0 3.2 0.00 0.00 0.00 93 1015.3
20260507231522 7 18 1.6 6.4 0.00 0.00 0.00 93 1015.4
20260507230022 7 54 0.0 3.2 0.00 0.00 0.00 94 1015.4
20260507224522 7 6 0.0 3.2 0.00 0.00 0.00 94 1015.3
20260507223021 7 60 0.0 3.2 0.00 0.00 0.00 93 1015.3
20260507221521 7 24 0.0 3.2 0.00 0.00 0.00 93 1015.2
20260507220021 7 270 0.0 6.4 0.00 0.00 0.00 94 1015.1
20260507214521 7 330 0.0 1.6 0.00 0.00 0.00 94 1015.0
20260507213022 7 0 0.0 3.2 0.00 0.00 0.00 93 1014.9
20260507211521 7 12 0.0 4.8 0.00 0.00 0.00 93 1014.9
20260507210021 7 312 0.0 4.8 0.00 0.00 0.00 93 1014.8
20260507204521 7 318 0.0 4.8 0.00 0.00 0.00 93 1014.7
20260507203021 7 294 0.0 3.2 0.00 0.00 0.00 93 1014.4
20260507201521 7 293 0.0 4.8 0.00 0.00 0.00 93 1014.4
20260507200021 7 306 0.0 6.4 0.00 0.00 0.00 94 1014.3
20260507194521 7 294 0.0 3.2 0.00 0.00 0.00 93 1014.1
20260507193021 7 330 0.0 4.8 0.00 0.00 0.00 93 1014.1
20260507191520 7 10 0.0 4.8 0.00 0.00 0.00 93 1014.0
20260507190020 7 48 0.0 6.4 0.00 0.00 0.00 93 1013.7
20260507184520 7 0 0.0 4.8 0.00 0.00 0.00 93 1013.6
20260507183020 7 342 0.0 6.4 0.00 0.00 0.00 92 1013.5
20260507181520 7 48 1.6 6.4 0.00 0.00 0.00 92 1013.1
20260507180020 7 294 1.6 6.4 0.00 0.00 0.00 92 1013.0
20260507174520 7 354 1.6 6.4 0.00 0.00 0.00 92 1013.0
20260507173020 7 4 1.6 6.4 0.00 0.00 0.00 92 1013.0
20260507171520 7 66 1.6 8.0 0.00 0.00 0.00 92 1012.8
20260507170020 7 276 1.6 6.4 0.00 0.00 0.00 92 1012.7
20260507164520 8 24 1.6 4.8 0.00 0.00 0.00 92 1012.6
20260507163020 8 271 1.6 6.4 0.00 0.00 0.00 92 1012.6
20260507161520 8 300 0.0 6.4 0.00 0.00 0.00 93 1012.6
20260507160020 8 18 1.6 6.4 0.00 0.00 0.00 92 1012.7
20260507154520 8 300 1.6 6.4 0.00 0.00 0.00 93 1012.6
20260507153020 8 342 3.2 6.4 0.00 0.00 0.00 91 1012.5
20260507151520 8 318 1.6 6.4 0.00 0.00 0.00 91 1012.5
20260507150020 8 24 1.6 6.4 0.00 0.00 0.00 91 1012.5
20260507144517 8 42 1.6 6.4 0.00 0.00 0.00 93 1012.3
20260507143017 8 42 1.6 6.4 0.00 0.00 0.00 92 1012.3
20260507141517 7 258 0.0 4.8 0.00 0.00 0.00 92 1012.3
20260507140017 8 87 3.2 8.0 0.00 0.00 0.00 93 1012.4
20260507134517 8 324 1.6 8.0 0.00 0.00 0.00 92 1012.2
20260507133017 8 90 1.6 6.4 0.03 0.00 0.00 93 1012.1
20260507131517 8 330 1.6 6.4 0.05 0.00 0.00 92 1012.0
20260507130017 8 24 1.6 6.4 0.13 0.00 0.00 92 1012.0
20260507124517 7 281 0.0 6.4 0.18 0.00 0.00 93 1011.9
20260507123017 7 34 1.6 6.4 0.18 0.00 0.00 93 1011.8
20260507120014 8 86 1.6 6.4 0.05 0.00 0.00 89 1011.5
20260507114514 8 18 1.6 8.0 0.03 0.00 0.00 87 1011.4
20260507113014 8 42 3.2 6.4 0.00 0.00 0.00 86 1011.3
20260507111514 8 234 3.2 8.0 0.00 0.00 0.00 87 1011.3
20260507110015 8 11 4.8 12.9 0.00 0.00 0.00 88 1011.2
20260507104514 8 0 3.2 8.0 0.00 0.00 0.00 88 1010.9
20260507103014 8 318 1.6 8.0 0.00 0.00 0.00 89 1010.9
20260507101514 7 72 1.6 6.4 0.05 0.00 0.00 91 1010.8
20260507100014 7 48 3.2 9.7 0.05 0.00 0.00 92 1010.6
20260507094514 7 342 1.6 6.4 0.05 0.00 0.00 91 1010.5
20260507093014 7 348 1.6 6.4 0.03 0.00 0.00 91 1010.3
20260507091513 7 78 3.2 9.7 0.03 0.00 0.00 91 1010.2
20260507090012 7 306 3.2 9.7 0.03 0.00 0.00 90 1010.0
20260507084512 7 42 3.2 11.3 0.00 0.00 0.00 87 1009.7
20260507083012 7 342 3.2 9.7 0.00 0.00 0.00 85 1009.5
20260507081512 7 66 3.2 6.4 0.00 0.00 0.00 85 1009.4
20260507080012 7 90 3.2 9.7 0.00 0.00 0.00 85 1009.2
20260507074512 7 0 1.6 8.0 0.00 0.00 0.00 84 1009.0
20260507073012 7 48 1.6 6.4 0.00 0.00 0.00 86 1008.9
20260507071512 7 84 3.2 9.7 0.00 0.00 0.00 87 1008.9
20260507070013 7 48 3.2 14.5 0.00 0.00 0.00 86 1008.7
20260507064512 7 324 3.2 9.7 0.00 0.00 0.00 85 1008.6
20260507063012 7 54 3.2 8.0 0.00 0.00 0.00 86 1008.3
20260507061512 7 5 3.2 8.0 0.00 0.00 0.00 86 1008.4
20260507060012 7 0 3.2 9.7 0.00 0.00 0.00 87 1008.3
20260507054512 7 343 3.2 16.1 0.00 0.00 0.00 87 1008.0
20260507053012 7 318 4.8 9.7 0.00 0.00 0.00 88 1007.9
20260507051512 7 54 3.2 6.4 0.00 0.00 0.00 89 1007.8
20260507050011 6 330 3.2 9.7 0.00 0.00 0.00 90 1007.6
20260507044511 6 354 3.2 9.7 0.00 0.00 0.00 90 1007.7
20260507043011 6 54 1.6 8.0 0.00 0.00 0.00 91 1007.6
20260507041511 6 306 1.6 6.4 0.00 0.00 0.00 91 1007.4
20260507040011 6 102 3.2 9.7 0.00 0.00 0.00 92 1007.2
20260507034511 6 264 1.6 9.7 0.00 0.00 0.00 91 1007.0
20260507033011 6 270 3.2 9.7 0.00 0.00 0.00 90 1007.1
20260507031511 6 6 3.2 14.5 0.00 0.00 0.00 91 1006.9
20260507030011 6 336 3.2 9.7 0.00 0.00 0.00 91 1006.6
20260507024511 6 24 4.8 9.7 0.00 0.00 0.00 91 1006.4
20260507023011 7 10 3.2 14.5 0.00 0.00 0.00 90 1006.5
20260507021511 7 294 1.6 9.7 0.00 0.00 0.00 91 1006.4
20260507014510 7 96 1.6 8.0 0.00 0.00 0.00 91 1006.2